| time (UTC) | temp C | wind direction | speed KPH | gust KPH | rain 1hr cm | rain 24hr cm | rain mn cm | humidity % | barometer mb |
| 20260502123047 | -1 | 274 | 0.0 | 3.2 | 0.00 | 0.00 | 0.00 | 61 | 1021.7 |
| 20260502121536 | -1 | 245 | 0.0 | 4.8 | 0.00 | 0.00 | 0.00 | 62 | 1021.7 |
| 20260502114533 | 0 | 246 | 0.0 | 3.2 | 0.00 | 0.00 | 0.00 | 61 | 1021.5 |
| 20260502113028 | 0 | 253 | 0.0 | 3.2 | 0.00 | 0.00 | 0.00 | 61 | 1021.4 |
| 20260502111527 | 0 | 254 | 0.0 | 3.2 | 0.00 | 0.00 | 0.00 | 61 | 1021.6 |
| 20260502110024 | 0 | 257 | 0.0 | 3.2 | 0.00 | 0.00 | 0.00 | 60 | 1021.6 |
| 20260502104526 | 0 | 242 | 0.0 | 3.2 | 0.00 | 0.00 | 0.00 | 61 | 1021.5 |
| 20260502103122 | 0 | 276 | 0.0 | 1.6 | 0.00 | 0.00 | 0.00 | 60 | 1021.5 |
| 20260502101516 | 0 | 243 | 0.0 | 1.6 | 0.00 | 0.00 | 0.00 | 57 | 1021.4 |
| 20260502091508 | 1 | 244 | 0.0 | 1.6 | 0.00 | 0.00 | 0.00 | 57 | 1021.2 |
| 20260502070048 | 3 | 229 | 0.0 | 4.8 | 0.00 | 0.00 | 0.00 | 46 | 1021.0 |
| 20260502064541 | 3 | 213 | 1.6 | 6.4 | 0.00 | 0.00 | 0.00 | 47 | 1020.8 |
| 20260502063036 | 3 | 191 | 1.6 | 4.8 | 0.00 | 0.00 | 0.00 | 44 | 1020.7 |
| 20260502061538 | 4 | 221 | 0.0 | 3.2 | 0.00 | 0.00 | 0.00 | 45 | 1020.5 |
| 20260502060029 | 4 | 227 | 0.0 | 3.2 | 0.00 | 0.00 | 0.00 | 43 | 1020.3 |
| 20260502054528 | 5 | 226 | 1.6 | 4.8 | 0.00 | 0.00 | 0.00 | 42 | 1020.3 |
| 20260502053027 | 5 | 209 | 1.6 | 4.8 | 0.00 | 0.00 | 0.00 | 43 | 1020.3 |
| 20260502051526 | 5 | 219 | 0.0 | 3.2 | 0.00 | 0.00 | 0.00 | 43 | 1020.2 |
| 20260502050025 | 5 | 207 | 0.0 | 1.6 | 0.00 | 0.00 | 0.00 | 42 | 1019.9 |
| 20260502044523 | 5 | 174 | 0.0 | 0.0 | 0.00 | 0.00 | 0.00 | 44 | 1019.8 |
| 20260502043024 | 6 | 165 | 1.6 | 4.8 | 0.00 | 0.00 | 0.00 | 41 | 1019.7 |
| 20260502041526 | 6 | 198 | 0.0 | 3.2 | 0.00 | 0.00 | 0.00 | 42 | 1019.4 |
| 20260502040020 | 7 | 170 | 0.0 | 3.2 | 0.00 | 0.00 | 0.00 | 40 | 1019.1 |
| 20260502034520 | 8 | 214 | 0.0 | 1.6 | 0.00 | 0.00 | 0.00 | 38 | 1018.7 |
| 20260502033025 | 8 | 200 | 1.6 | 3.2 | 0.00 | 0.00 | 0.00 | 36 | 1018.4 |
| 20260502031518 | 10 | 158 | 0.0 | 3.2 | 0.00 | 0.00 | 0.00 | 36 | 1017.7 |
| 20260502030018 | 10 | 106 | 0.0 | 1.6 | 0.00 | 0.00 | 0.00 | 35 | 1017.5 |
| 20260502024518 | 11 | 53 | 0.0 | 6.4 | 0.00 | 0.00 | 0.00 | 36 | 1017.2 |
| 20260502023017 | 12 | 32 | 1.6 | 8.0 | 0.00 | 0.00 | 0.00 | 30 | 1017.1 |
| 20260502021516 | 13 | 58 | 3.2 | 12.9 | 0.00 | 0.00 | 0.00 | 26 | 1016.9 |
| 20260502020016 | 15 | 359 | 8.0 | 17.7 | 0.00 | 0.00 | 0.00 | 24 | 1016.9 |
| 20260502014516 | 16 | 73 | 9.7 | 17.7 | 0.00 | 0.00 | 0.00 | 23 | 1016.7 |
| 20260502013015 | 17 | 32 | 8.0 | 16.1 | 0.00 | 0.00 | 0.00 | 21 | 1016.6 |
| 20260502011514 | 17 | 28 | 9.7 | 22.5 | 0.00 | 0.00 | 0.00 | 20 | 1016.5 |
| 20260502010013 | 17 | 359 | 9.7 | 30.6 | 0.00 | 0.00 | 0.00 | 18 | 1016.5 |
| 20260502004512 | 17 | 4 | 16.1 | 25.7 | 0.00 | 0.00 | 0.00 | 18 | 1016.5 |
| 20260502003014 | 18 | 41 | 11.3 | 22.5 | 0.00 | 0.00 | 0.00 | 18 | 1016.4 |
| 20260502001510 | 18 | 43 | 11.3 | 27.4 | 0.00 | 0.00 | 0.00 | 17 | 1016.5 |
| 20260502000014 | 18 | 358 | 11.3 | 27.4 | 0.00 | 0.00 | 0.00 | 15 | 1016.6 |
| 20260501234507 | 18 | 348 | 12.9 | 27.4 | 0.00 | 0.00 | 0.00 | 19 | 1016.4 |
| 20260501233005 | 18 | 49 | 14.5 | 22.5 | 0.00 | 0.00 | 0.00 | 17 | 1016.2 |
| 20260501231503 | 18 | 49 | 12.9 | 30.6 | 0.00 | 0.00 | 0.00 | 16 | 1016.2 |
| 20260501230002 | 17 | 40 | 12.9 | 32.2 | 0.00 | 0.00 | 0.00 | 17 | 1016.2 |
| 20260501224605 | 17 | 342 | 11.3 | 25.7 | 0.00 | 0.00 | 0.00 | 16 | 1016.3 |
| 20260501223107 | 17 | 340 | 9.7 | 32.2 | 0.00 | 0.00 | 0.00 | 17 | 1016.4 |
| 20260501221557 | 17 | 6 | 12.9 | 29.0 | 0.00 | 0.00 | 0.00 | 17 | 1016.6 |
| 20260501220057 | 18 | 53 | 11.3 | 33.8 | 0.00 | 0.00 | 0.00 | 18 | 1016.8 |
| 20260501214558 | 17 | 30 | 11.3 | 32.2 | 0.00 | 0.00 | 0.00 | 18 | 1016.9 |
| 20260501213056 | 18 | 38 | 16.1 | 29.0 | 0.00 | 0.00 | 0.00 | 21 | 1017.1 |
| 20260501211558 | 17 | 31 | 16.1 | 37.0 | 0.00 | 0.00 | 0.00 | 20 | 1017.4 |
| 20260501210050 | 18 | 24 | 17.7 | 27.4 | 0.00 | 0.00 | 0.00 | 20 | 1017.6 |
| 20260501204616 | 17 | 58 | 16.1 | 29.0 | 0.00 | 0.00 | 0.00 | 19 | 1017.7 |
| 20260501203047 | 17 | 2 | 14.5 | 29.0 | 0.00 | 0.00 | 0.00 | 20 | 1017.7 |
| 20260501201545 | 17 | 335 | 12.9 | 27.4 | 0.00 | 0.00 | 0.00 | 20 | 1017.8 |
| 20260501200043 | 16 | 342 | 12.9 | 37.0 | 0.00 | 0.00 | 0.00 | 22 | 1017.8 |
| 20260501194543 | 16 | 25 | 11.3 | 29.0 | 0.00 | 0.00 | 0.00 | 23 | 1017.9 |
| 20260501193043 | 16 | 354 | 11.3 | 24.1 | 0.00 | 0.00 | 0.00 | 24 | 1018.1 |
| 20260501191534 | 16 | 20 | 17.7 | 27.4 | 0.00 | 0.00 | 0.00 | 24 | 1018.4 |
| 20260501190031 | 16 | 60 | 14.5 | 32.2 | 0.00 | 0.00 | 0.00 | 26 | 1018.3 |
| 20260501184529 | 15 | 49 | 17.7 | 25.7 | 0.00 | 0.00 | 0.00 | 24 | 1018.6 |
| 20260501183031 | 15 | 35 | 4.8 | 29.0 | 0.00 | 0.00 | 0.00 | 26 | 1018.7 |
| 20260501181525 | 15 | 51 | 11.3 | 24.1 | 0.00 | 0.00 | 0.00 | 25 | 1018.8 |
| 20260501180032 | 15 | 321 | 12.9 | 25.7 | 0.00 | 0.00 | 0.00 | 26 | 1018.9 |
| 20260501174536 | 14 | 6 | 16.1 | 27.4 | 0.00 | 0.00 | 0.00 | 26 | 1019.1 |
| 20260501173021 | 14 | 64 | 12.9 | 29.0 | 0.00 | 0.00 | 0.00 | 27 | 1019.2 |
| 20260501171516 | 13 | 340 | 14.5 | 22.5 | 0.00 | 0.00 | 0.00 | 32 | 1019.2 |
| 20260501170014 | 13 | 9 | 9.7 | 24.1 | 0.00 | 0.00 | 0.00 | 32 | 1019.3 |
| 20260501164511 | 12 | 9 | 9.7 | 19.3 | 0.00 | 0.00 | 0.00 | 33 | 1019.5 |
| 20260501163010 | 12 | 304 | 8.0 | 24.1 | 0.00 | 0.00 | 0.00 | 32 | 1019.5 |
| 20260501161509 | 12 | 65 | 9.7 | 17.7 | 0.00 | 0.00 | 0.00 | 32 | 1019.5 |
| 20260501160010 | 11 | 347 | 8.0 | 17.7 | 0.00 | 0.00 | 0.00 | 32 | 1019.6 |
| 20260501154502 | 11 | 6 | 8.0 | 19.3 | 0.00 | 0.00 | 0.00 | 32 | 1019.6 |
| 20260501153100 | 11 | 51 | 6.4 | 14.5 | 0.00 | 0.00 | 0.00 | 33 | 1019.5 |
| 20260501151559 | 10 | 27 | 4.8 | 11.3 | 0.00 | 0.00 | 0.00 | 35 | 1019.5 |
| 20260501150056 | 10 | 6 | 1.6 | 4.8 | 0.00 | 0.00 | 0.00 | 34 | 1019.4 |
| 20260501144608 | 10 | 60 | 0.0 | 1.6 | 0.00 | 0.00 | 0.00 | 33 | 1019.4 |